Location: Dallas
(32.7833°N, 96.8000°W)
Time: 02:14:15
(UTC-06:00)

Envisat - Pass Details

Date: 26 January 2021
Orbit: 764 x 766 km, 98.1° (Epoch: 04 March)

Event Time Altitude Azimuth Distance (km) Brightness Sun altitude
Rises 04:42:55 0° 41° (NE) 3,232 6.7 -34.2°
Reaches altitude 10° 04:47:48 10° 83° (E) 2,299 6.3 -33.1°
Maximum altitude 04:48:29 10° 91° (E) 2,280 6.3 -33.0°
Drops below altitude 10° 04:49:11 10° 99° (E) 2,297 6.3 -32.9°
Sets 04:54:01 0° 141° (SE) 3,215 6.8 -31.8°
